TimeEST,TemperatureF,Dew PointF,Humidity,Sea Level PressureIn,VisibilityMPH,Wind Direction,Wind SpeedMPH,Gust SpeedMPH,PrecipitationIn,Events,Conditions,WindDirDegrees,DateUTC
12:26 AM,66.2,57.2,73,29.98,10.0,NNW,8.1,-,N/A,,Overcast,340,2013-02-14 05:26:00
12:53 AM,66.9,57.0,70,29.98,10.0,NNW,4.6,-,N/A,,Overcast,330,2013-02-14 05:53:00
1:53 AM,64.9,57.0,75,29.97,10.0,NW,3.5,-,N/A,,Mostly Cloudy,310,2013-02-14 06:53:00
2:53 AM,64.9,57.9,78,29.96,10.0,West,3.5,-,N/A,,Overcast,270,2013-02-14 07:53:00
3:53 AM,66.0,57.9,75,29.96,10.0,Calm,Calm,-,N/A,,Overcast,0,2013-02-14 08:53:00
4:53 AM,64.0,60.1,87,29.97,10.0,Calm,Calm,-,0.00,,Overcast,0,2013-02-14 09:53:00
5:53 AM,63.0,59.0,87,29.96,10.0,Calm,Calm,-,N/A,,Overcast,0,2013-02-14 10:53:00
6:53 AM,63.0,60.1,90,29.97,10.0,Calm,Calm,-,N/A,,Overcast,0,2013-02-14 11:53:00
7:53 AM,64.9,61.0,87,29.98,10.0,Calm,Calm,-,0.00,,Overcast,0,2013-02-14 12:53:00
8:53 AM,66.9,63.0,87,30.00,10.0,South,4.6,-,N/A,,Overcast,190,2013-02-14 13:53:00
9:53 AM,70.0,64.0,81,29.99,10.0,SE,8.1,-,N/A,,Overcast,130,2013-02-14 14:53:00
10:53 AM,72.0,66.0,81,30.00,10.0,SSE,10.4,-,N/A,,Overcast,150,2013-02-14 15:53:00
11:31 AM,71.6,64.4,78,30.00,10.0,SW,6.9,-,N/A,,Overcast,230,2013-02-14 16:31:00
11:53 AM,72.0,64.9,78,29.99,10.0,SSW,6.9,-,N/A,,Overcast,200,2013-02-14 16:53:00
12:53 PM,71.1,66.0,84,29.97,5.0,SW,5.8,-,0.01,Rain,Light Rain,230,2013-02-14 17:53:00
1:00 PM,71.6,66.2,83,29.97,6.0,WSW,4.6,-,0.01,Rain,Light Rain,240,2013-02-14 18:00:00
1:53 PM,70.0,66.9,90,29.95,8.0,West,5.8,-,0.03,Rain,Light Rain,270,2013-02-14 18:53:00
2:11 PM,66.2,64.4,94,29.96,4.0,North,18.4,24.2,0.03,Rain,Heavy Rain,360,2013-02-14 19:11:00
2:22 PM,66.2,62.6,88,29.95,4.0,North,13.8,20.7,0.06,Rain,Light Rain,360,2013-02-14 19:22:00
2:53 PM,66.0,63.0,90,29.94,10.0,North,12.7,20.7,0.07,,Overcast,350,2013-02-14 19:53:00
3:39 PM,64.4,62.6,94,29.94,10.0,North,13.8,20.7,0.00,,Overcast,360,2013-02-14 20:39:00
3:53 PM,64.9,61.0,87,29.94,10.0,North,12.7,-,0.00,,Overcast,360,2013-02-14 20:53:00
4:18 PM,64.4,60.8,88,29.95,10.0,North,12.7,-,N/A,,Overcast,350,2013-02-14 21:18:00
4:27 PM,64.4,60.8,88,29.96,10.0,North,10.4,-,N/A,,Overcast,360,2013-02-14 21:27:00
4:53 PM,64.0,62.1,93,29.96,4.0,North,4.6,-,0.01,Rain,Rain,350,2013-02-14 21:53:00
4:59 PM,64.4,62.6,94,29.97,1.8,NNW,5.8,-,0.04,Rain,Heavy Rain,340,2013-02-14 21:59:00
5:02 PM,64.4,62.6,94,29.97,1.2,NW,8.1,-,0.08,Rain,Heavy Rain,320,2013-02-14 22:02:00
5:15 PM,64.4,62.6,94,29.96,2.5,NNW,11.5,-,0.19,Rain,Rain,340,2013-02-14 22:15:00
5:53 PM,63.0,62.1,97,29.98,2.0,NW,11.5,-,0.36,Rain,Heavy Rain,310,2013-02-14 22:53:00
6:28 PM,62.6,60.8,94,30.01,2.5,NNW,6.9,-,0.15,Rain,Rain,340,2013-02-14 23:28:00
6:42 PM,62.6,60.8,94,30.00,2.5,North,8.1,-,0.18,Rain,Rain,360,2013-02-14 23:42:00
6:50 PM,62.6,60.8,94,30.00,2.5,North,10.4,-,0.19,Rain,Rain,350,2013-02-14 23:50:00
6:53 PM,63.0,61.0,93,29.99,2.5,North,9.2,-,0.19,Rain,Rain,350,2013-02-14 23:53:00
7:00 PM,62.6,60.8,94,30.01,7.0,NNW,8.1,-,0.01,Rain,Rain,330,2013-02-15 00:00:00
7:07 PM,62.6,62.6,100,30.02,5.0,WNW,6.9,-,0.03,Rain,Rain,300,2013-02-15 00:07:00
7:39 PM,62.6,60.8,94,30.03,5.0,NW,8.1,-,0.06,Rain,Light Rain,320,2013-02-15 00:39:00
7:53 PM,63.0,61.0,93,30.03,6.0,WNW,8.1,-,0.07,Rain,Light Rain,300,2013-02-15 00:53:00
8:22 PM,62.6,60.8,94,30.05,4.0,NW,9.2,-,0.03,Rain,Light Rain,310,2013-02-15 01:22:00
8:53 PM,61.0,59.0,93,30.03,6.0,North,12.7,-,0.09,Rain,Light Rain,360,2013-02-15 01:53:00
8:58 PM,60.8,59.0,94,30.03,7.0,North,11.5,-,0.01,Rain,Light Rain,360,2013-02-15 01:58:00
9:53 PM,62.1,59.0,90,30.05,5.0,North,8.1,-,0.02,Rain,Light Rain,350,2013-02-15 02:53:00
10:53 PM,61.0,59.0,93,30.01,10.0,NE,8.1,-,0.06,Rain,Light Rain,50,2013-02-15 03:53:00
11:53 PM,62.1,59.0,90,30.01,10.0,ENE,5.8,-,0.00,Rain,Light Rain,60,2013-02-15 04:53:00